GW2070 Weather Reports


time (UTC)temp
C
wind
direction
speed
KPH
gust
KPH
rain 1hr
cm
rain 24hr
cm
rain mn
cm
humidity
%
barometer
mb
20260905172814 31 175 3.2 8.0 0.00 0.00 0.00 65 1014.5
20260905172312 31 249 8.0 11.3 0.00 0.00 0.00 63 1014.6
20260905171809 32 225 4.8 11.3 0.00 0.00 0.00 64 1014.7
20260905171305 31 147 1.6 8.0 0.00 0.00 0.00 65 1014.9
20260905170801 31 174 3.2 6.4 0.00 0.00 0.00 66 1015.0
20260905170257 31 260 8.0 11.3 0.00 0.00 0.00 64 1015.1
20260905165756 31 228 11.3 17.7 0.00 0.00 0.00 64 1015.2
20260905165252 30 242 11.3 11.3 0.00 0.00 0.00 65 1015.3
20260905164752 30 212 6.4 11.3 0.00 0.00 0.00 65 1015.3
20260905164246 30 246 6.4 11.3 0.00 0.00 0.00 65 1015.8
20260905163742 30 18 1.6 9.7 0.00 0.00 0.00 65 1015.5
20260905163238 30 279 0.0 6.4 0.00 0.00 0.00 65 1015.5
20260905162734 31 210 4.8 8.0 0.00 0.00 0.00 65 1015.7
20260905162233 30 164 4.8 8.0 0.00 0.00 0.00 67 1015.4
20260905161723 30 142 8.0 11.3 0.00 0.00 0.00 66 1015.4
20260905161221 30 143 4.8 11.3 0.00 0.00 0.00 65 1015.2
20260905160720 30 193 0.0 9.7 0.00 0.00 0.00 66 1015.2
20260905160220 30 171 0.0 11.3 0.00 0.00 0.00 64 1015.3
20260905155714 30 193 3.2 6.4 0.00 0.00 0.00 66 1015.5
20260905155213 30 135 4.8 8.0 0.00 0.00 0.00 64 1015.6
20260905154707 30 105 0.0 8.0 0.00 0.00 0.00 66 1016.0
20260905154203 30 138 1.6 4.8 0.00 0.00 0.00 67 1015.9
20260905153659 28 215 6.4 9.7 0.00 0.00 0.00 68 1016.0
20260905153154 28 136 8.0 11.3 0.00 0.00 0.00 67 1015.9
20260905152649 29 223 4.8 8.0 0.00 0.00 0.00 66 1015.9
20260905152144 28 136 6.4 14.5 0.00 0.00 0.00 68 1015.7
20260905151638 28 138 6.4 6.4 0.00 0.00 0.00 65 1015.7
20260905151134 28 156 4.8 8.0 0.00 0.00 0.00 69 1015.8
20260905150629 28 159 6.4 9.7 0.00 0.00 0.00 69 1015.8
20260905150127 28 125 0.0 11.3 0.00 0.00 0.00 72 1015.7
20260905145626 28 132 6.4 9.7 0.00 0.00 0.00 72 1015.8
20260905145125 28 155 3.2 8.0 0.00 0.00 0.00 72 1015.7
20260905144620 27 151 6.4 14.5 0.00 0.00 0.00 73 1015.6
20260905144119 27 144 4.8 6.4 0.00 0.00 0.00 72 1015.9
20260905143614 27 63 4.8 12.9 0.00 0.00 0.00 73 1016.0
20260905143109 26 147 4.8 11.3 0.00 0.00 0.00 75 1016.2
20260905142608 26 173 6.4 16.1 0.00 0.00 0.00 74 1016.1
20260905142102 27 152 8.0 9.7 0.00 0.00 0.00 76 1016.2
20260905141601 26 131 1.6 8.0 0.00 0.00 0.00 77 1016.1
20260905141058 26 172 6.4 14.5 0.00 0.00 0.00 76 1016.2
20260905140553 26 148 8.0 14.5 0.00 0.00 0.00 76 1015.9
20260905140052 26 203 1.6 14.5 0.00 0.00 0.00 76 1016.1
20260905135548 26 135 4.8 9.7 0.00 0.00 0.00 79 1016.0
20260905135047 26 71 3.2 8.0 0.00 0.00 0.00 79 1016.2
20260905134542 26 172 3.2 8.0 0.00 0.00 0.00 79 1016.3
20260905134041 26 122 4.8 8.0 0.00 0.00 0.00 82 1016.0
20260905133536 26 163 6.4 16.1 0.00 0.00 0.00 82 1016.4
20260905133031 25 138 3.2 12.9 0.00 0.00 0.00 83 1016.3
20260905132531 25 112 8.0 19.3 0.00 0.00 0.00 83 1016.3
20260905132026 25 111 3.2 14.5 0.00 0.00 0.00 83 1016.3
20260905131521 25 176 6.4 11.3 0.00 0.00 0.00 84 1016.3
20260905131016 25 107 3.2 12.9 0.00 0.00 0.00 87 1016.2
20260905130515 25 124 3.2 11.3 0.00 0.00 0.00 88 1016.2
20260905130011 25 157 0.0 8.0 0.00 0.00 0.00 88 1016.3
20260905125505 25 145 4.8 9.7 0.00 0.00 0.00 88 1016.4
20260905125000 25 138 3.2 9.7 0.00 0.00 0.00 88 1016.3
20260905124457 25 143 6.4 14.5 0.00 0.00 0.00 88 1016.3
20260905123952 25 144 4.8 6.4 0.00 0.00 0.00 89 1015.9
20260905123448 25 147 4.8 8.0 0.00 0.00 0.00 92 1015.9
20260905122948 24 147 3.2 8.0 0.00 0.00 0.00 94 1015.7
20260905122443 23 127 6.4 11.3 0.00 0.00 0.00 95 1016.0
20260905121938 24 29 0.0 1.6 0.00 0.00 0.00 95 1015.2
20260905121434 24 167 3.2 3.2 0.00 0.00 0.00 94 1015.2
20260905120933 24 135 0.0 1.6 0.00 0.00 0.00 94 1015.1
20260905120427 23 230 1.6 3.2 0.00 0.00 0.00 94 1015.0
20260905115922 23 230 0.0 0.0 0.00 0.00 0.00 95 1015.1
20260905115421 23 22 0.0 1.6 0.00 0.00 0.00 95 1014.7
20260905114917 23 244 0.0 3.2 0.00 0.00 0.00 95 1014.8
20260905114416 23 89 0.0 0.0 0.00 0.00 0.00 96 1014.7
20260905113910 23 82 1.6 1.6 0.00 0.00 0.00 96 1014.8
20260905113405 23 50 0.0 0.0 0.00 0.00 0.00 96 1014.8
20260905112901 23 45 1.6 3.2 0.00 0.00 0.00 96 1014.6
20260905112356 23 114 1.6 1.6 0.00 0.00 0.00 96 1014.5
20260905111850 23 129 0.0 1.6 0.00 0.00 0.00 96 1014.5
20260905111344 23 240 0.0 0.0 0.00 0.00 0.00 96 1014.5
20260905110844 23 217 0.0 1.6 0.00 0.00 0.00 96 1014.5
20260905110338 23 291 0.0 3.2 0.00 0.00 0.00 96 1014.4
20260905105834 23 229 0.0 1.6 0.00 0.00 0.00 96 1014.2
20260905105333 23 44 0.0 0.0 0.00 0.00 0.00 96 1014.4
20260905104827 23 25 0.0 0.0 0.00 0.00 0.00 96 1014.6
20260905104324 23 25 0.0 1.6 0.00 0.00 0.00 96 1014.5
20260905103823 23 104 0.0 1.6 0.00 0.00 0.00 96 1014.5
20260905103319 24 129 0.0 1.6 0.00 0.00 0.00 96 1014.6
20260905102815 24 142 0.0 1.6 0.00 0.00 0.00 95 1014.6
20260905102311 24 321 0.0 1.6 0.00 0.00 0.00 95 1014.7
20260905101811 24 225 0.0 1.6 0.00 0.00 0.00 95 1014.7
20260905101309 24 243 1.6 3.2 0.00 0.00 0.00 95 1014.6
20260905100803 24 242 0.0 1.6 0.00 0.00 0.00 95 1014.7
20260905100259 24 239 1.6 3.2 0.00 0.00 0.00 95 1014.7
20260905095758 24 244 3.2 3.2 0.00 0.00 0.00 95 1014.7
20260905095253 24 230 0.0 3.2 0.00 0.00 0.00 95 1014.4
20260905094748 24 32 0.0 1.6 0.00 0.00 0.00 95 1014.5
20260905094244 24 195 0.0 0.0 0.00 0.00 0.00 95 1014.4
20260905093742 24 218 0.0 3.2 0.00 0.00 0.00 95 1014.3
20260905093238 24 212 0.0 1.6 0.00 0.00 0.00 95 1014.4
20260905092734 24 254 0.0 4.8 0.00 0.00 0.00 95 1014.6
20260905092229 24 255 0.0 1.6 0.00 0.00 0.00 95 1014.5
20260905091729 24 89 0.0 1.6 0.00 0.00 0.00 95 1014.3
20260905091224 24 37 0.0 3.2 0.00 0.00 0.00 95 1014.2
20260905090723 24 62 0.0 1.6 0.00 0.00 0.00 95 1014.3
20260905090219 25 26 0.0 3.2 0.00 0.00 0.00 94 1014.2
20260905085718 25 269 0.0 1.6 0.00 0.00 0.00 94 1014.2
20260905085212 25 205 0.0 1.6 0.00 0.00 0.00 93 1014.1
20260905084707 25 243 0.0 3.2 0.00 0.00 0.00 93 1014.0
20260905084207 25 237 0.0 1.6 0.00 0.00 0.00 93 1014.1
20260905083701 25 240 0.0 3.2 0.00 0.00 0.00 93 1014.0
20260905083158 25 54 0.0 3.2 0.00 0.00 0.00 93 1013.8
20260905082653 25 40 3.2 4.8 0.00 0.00 0.00 91 1013.6
20260905082148 26 286 1.6 3.2 0.00 0.00 0.00 89 1013.8
20260905081643 26 245 1.6 6.4 0.00 0.00 0.00 89 1013.8
20260905081138 26 197 0.0 4.8 0.00 0.00 0.00 90 1013.6
20260905080632 26 242 3.2 4.8 0.00 0.00 0.00 91 1013.8
20260905080127 25 227 1.6 4.8 0.00 0.00 0.00 92 1013.8
20260905075626 25 226 1.6 4.8 0.00 0.00 0.00 92 1013.7
20260905075120 25 244 3.2 3.2 0.00 0.00 0.00 94 1013.6
20260905074619 25 32 0.0 3.2 0.00 0.00 0.00 95 1013.6
20260905074115 24 212 0.0 3.2 0.00 0.00 0.00 96 1013.7
20260905073611 24 62 0.0 1.6 0.00 0.00 0.00 97 1013.5
20260905073106 24 61 0.0 3.2 0.00 0.00 0.00 97 1013.5
20260905072605 24 17 0.0 1.6 0.00 0.00 0.00 96 1013.8
20260905072101 25 89 0.0 1.6 0.00 0.00 0.00 96 1013.7
20260905071558 25 89 0.0 1.6 0.00 0.00 0.00 96 1014.0
20260905071058 25 117 0.0 1.6 0.00 0.00 0.00 95 1014.3
20260905070553 25 147 0.0 1.6 0.00 0.00 0.00 95 1014.2
20260905070049 25 220 1.6 4.8 0.00 0.00 0.00 95 1014.3
20260905065546 25 246 0.0 3.2 0.00 0.00 0.00 96 1014.3
20260905065041 25 62 0.0 0.0 0.00 0.00 0.00 95 1014.2
20260905064536 25 15 0.0 1.6 0.00 0.00 0.00 95 1014.6
20260905064032 25 240 0.0 1.6 0.00 0.00 0.00 95 1014.5
20260905063530 25 228 0.0 3.2 0.00 0.00 0.00 95 1014.6
20260905063027 25 224 0.0 3.2 0.00 0.00 0.00 95 1014.6
20260905062526 25 186 0.0 1.6 0.00 0.00 0.00 96 1014.6
20260905062021 25 55 0.0 1.6 0.00 0.00 0.00 96 1014.7
20260905061517 25 45 0.0 1.6 0.00 0.00 0.00 96 1014.8
20260905061015 25 235 0.0 0.0 0.00 0.00 0.00 96 1014.5
20260905060512 25 235 0.0 1.6 0.00 0.00 0.00 95 1014.7
20260905060007 25 25 0.0 1.6 0.00 0.00 0.00 95 1014.8
20260905055505 25 119 0.0 0.0 0.00 0.00 0.00 94 1014.9
20260905055000 25 126 0.0 0.0 0.00 0.00 0.00 94 1014.8
20260905054456 25 209 0.0 1.6 0.00 0.00 0.00 94 1014.7
20260905053951 25 202 0.0 1.6 0.00 0.00 0.00 94 1014.7
20260905053446 25 217 0.0 1.6 0.00 0.00 0.00 94 1015.0
20260905052942 25 50 0.0 0.0 0.00 0.00 0.00 94 1015.0
20260905052441 25 48 0.0 3.2 0.00 0.00 0.00 93 1014.9
20260905051940 25 160 0.0 0.0 0.00 0.00 0.00 92 1015.0
20260905051436 26 160 0.0 3.2 0.00 0.00 0.00 92 1015.1
20260905050933 26 227 0.0 3.2 0.00 0.00 0.00 92 1015.0
20260905050429 26 231 3.2 4.8 0.00 0.00 0.00 92 1014.9
20260905045924 26 228 3.2 3.2 0.00 0.00 0.00 92 1015.1
20260905045414 26 224 1.6 3.2 0.00 0.00 0.00 92 1015.0
20260905044909 26 49 0.0 0.0 0.00 0.00 0.00 93 1015.2
20260905044404 26 49 0.0 0.0 0.00 0.00 0.00 93 1015.4
20260905043903 26 49 0.0 0.0 0.00 0.00 0.00 93 1015.1
20260905043358 26 49 0.0 0.0 0.00 0.00 0.00 93 1015.1
20260905042857 26 49 0.0 0.0 0.00 0.00 0.00 93 1015.3
20260905042352 26 49 0.0 0.0 0.00 0.00 0.00 93 1015.2
20260905041847 26 49 0.0 0.0 0.00 0.00 0.00 93 1015.2
20260905041343 26 49 0.0 0.0 0.00 0.00 0.00 93 1015.1
20260905040838 26 49 0.0 0.0 0.00 0.00 0.00 92 1015.2
20260905040337 26 309 0.0 1.6 0.00 0.00 0.00 92 1015.4
20260905035836 26 41 0.0 1.6 0.00 0.00 0.00 91 1015.1
20260905035332 26 227 1.6 1.6 0.00 0.00 0.00 91 1015.1
20260905034829 26 240 0.0 1.6 0.00 0.00 0.00 91 1015.2
20260905034324 26 230 0.0 0.0 0.00 0.00 0.00 91 1015.1
20260905033822 26 297 0.0 1.6 0.00 0.00 0.00 91 1015.1
20260905033318 26 62 0.0 0.0 0.00 0.00 0.00 91 1015.1
20260905032817 26 62 0.0 3.2 0.00 0.00 0.00 90 1015.3
20260905032313 26 224 0.0 3.2 0.00 0.00 0.00 89 1015.1
20260905031808 26 224 1.6 3.2 0.00 0.00 0.00 89 1014.9
20260905031304 26 230 0.0 1.6 0.00 0.00 0.00 89 1015.2
20260905030759 26 237 0.0 1.6 0.00 0.00 0.00 89 1015.0
20260905030254 26 147 0.0 0.0 0.00 0.00 0.00 89 1015.1
20260905025748 26 147 0.0 1.6 0.00 0.00 0.00 88 1015.2
20260905025244 26 50 0.0 1.6 0.00 0.00 0.00 88 1015.2
20260905024740 26 62 0.0 1.6 0.00 0.00 0.00 87 1015.2
20260905024235 27 255 0.0 0.0 0.00 0.00 0.00 86 1015.2
20260905023735 27 255 0.0 1.6 0.00 0.00 0.00 86 1015.1
20260905023230 27 142 0.0 0.0 0.00 0.00 0.00 86 1015.4
20260905022729 27 144 0.0 1.6 0.00 0.00 0.00 86 1015.0
20260905022225 27 117 0.0 0.0 0.00 0.00 0.00 85 1015.1
20260905021719 27 117 0.0 1.6 0.00 0.00 0.00 85 1015.2
20260905021214 27 89 0.0 1.6 0.00 0.00 0.00 84 1014.8
20260905020709 27 122 0.0 1.6 0.00 0.00 0.00 83 1015.1
20260905020204 27 230 0.0 3.2 0.00 0.00 0.00 82 1015.0
20260905015702 27 256 0.0 0.0 0.00 0.00 0.00 82 1014.9
20260905015156 27 233 1.6 3.2 0.00 0.00 0.00 83 1015.0
20260905014655 28 242 0.0 0.0 0.00 0.00 0.00 82 1015.1
20260905014151 28 242 0.0 0.0 0.00 0.00 0.00 81 1014.8
20260905013647 28 242 0.0 0.0 0.00 0.00 0.00 81 1014.7
20260905013143 28 242 0.0 1.6 0.00 0.00 0.00 80 1014.9
20260905012638 28 237 0.0 3.2 0.00 0.00 0.00 81 1014.6
20260905012134 28 230 0.0 0.0 0.00 0.00 0.00 81 1014.6
20260905011631 28 230 0.0 1.6 0.00 0.00 0.00 81 1014.5
20260905011126 28 242 0.0 0.0 0.00 0.00 0.00 80 1014.8
20260905010621 28 256 0.0 3.2 0.00 0.00 0.00 79 1014.8
20260905010116 28 229 3.2 3.2 0.00 0.00 0.00 78 1014.7
20260905005611 28 242 0.0 0.0 0.00 0.00 0.00 79 1014.6
20260905005107 29 242 0.0 1.6 0.00 0.00 0.00 78 1014.6
20260905004602 29 230 0.0 0.0 0.00 0.00 0.00 75 1014.6
20260905004057 29 230 0.0 0.0 0.00 0.00 0.00 74 1014.6
20260905003553 30 230 0.0 0.0 0.00 0.00 0.00 74 1014.3
20260905003048 30 230 0.0 0.0 0.00 0.00 0.00 74 1014.6
20260905002544 30 230 0.0 0.0 0.00 0.00 0.00 72 1014.4
20260905002044 30 255 0.0 1.6 0.00 0.00 0.00 71 1014.3
20260905001539 30 255 0.0 0.0 0.00 0.00 0.00 70 1014.3
20260905001032 30 255 0.0 0.0 0.00 0.00 0.00 70 1014.5
20260905000528 31 255 0.0 0.0 0.00 0.00 0.00 68 1014.3
20260905000024 31 255 0.0 0.0 0.00 0.00 0.00 68 1014.4
20260904235519 31 255 0.0 0.0 0.00 0.00 0.00 67 1014.3
20260904235019 31 255 0.0 0.0 0.00 0.00 0.00 65 1014.2
20260904234519 31 255 0.0 0.0 0.00 0.00 0.00 65 1014.4
20260904234015 32 242 0.0 1.6 0.00 0.00 0.00 65 1014.1
20260904233509 32 269 0.0 0.0 0.00 0.00 0.00 64 1014.3
20260904233006 32 269 0.0 0.0 0.00 0.00 0.00 63 1014.3
20260904232501 32 269 0.0 0.0 0.00 0.00 0.00 62 1014.1
20260904231953 32 269 0.0 0.0 0.00 0.00 0.00 62 1014.2
20260904231448 32 269 0.0 0.0 0.00 0.00 0.00 61 1014.1
20260904230943 33 269 0.0 1.6 0.00 0.00 0.00 61 1014.1
20260904230442 33 242 0.0 0.0 0.00 0.00 0.00 60 1014.1
20260904225937 33 269 0.0 3.2 0.00 0.00 0.00 60 1014.3
20260904225434 33 242 0.0 3.2 0.00 0.00 0.00 60 1014.4
20260904224929 33 237 3.2 3.2 0.00 0.00 0.00 59 1014.4
20260904224425 34 89 0.0 0.0 0.00 0.00 0.00 57 1014.2
20260904223924 33 89 0.0 0.0 0.00 0.00 0.00 58 1014.5
20260904223423 33 37 0.0 0.0 0.00 0.00 0.00 59 1014.5
20260904222920 33 41 0.0 3.2 0.00 0.00 0.00 59 1014.3
20260904222415 33 50 0.0 1.6 0.00 0.00 0.00 58 1014.4
20260904221915 33 113 0.0 1.6 0.00 0.00 0.00 55 1014.3
20260904221409 34 205 0.0 4.8 0.00 0.00 0.00 57 1014.3
20260904220905 34 244 4.8 6.4 0.00 0.00 0.00 56 1014.4
20260904220404 34 239 1.6 8.0 0.00 0.00 0.00 55 1014.4
20260904215900 34 233 4.8 6.4 0.00 0.00 0.00 57 1014.4
20260904215354 34 309 0.0 1.6 0.00 0.00 0.00 56 1014.3
20260904214850 34 0 0.0 1.6 0.00 0.00 0.00 57 1014.4
20260904214346 34 230 0.0 6.4 0.00 0.00 0.00 59 1014.5
20260904213844 34 53 3.2 4.8 0.00 0.00 0.00 56 1014.6
20260904213339 35 236 3.2 4.8 0.00 0.00 0.00 56 1014.6
20260904212836 34 246 0.0 4.8 0.00 0.00 0.00 54 1014.7
20260904212335 34 262 1.6 4.8 0.00 0.00 0.00 53 1014.5
20260904211831 35 327 1.6 3.2 0.00 0.00 0.00 54 1014.9
20260904211325 34 333 0.0 6.4 0.00 0.00 0.00 54 1014.8
20260904210815 34 50 0.0 3.2 0.00 0.00 0.00 58 1015.3
20260904210314 35 254 0.0 4.8 0.00 0.00 0.00 54 1014.9
20260904205811 35 230 0.0 8.0 0.00 0.00 0.00 58 1014.9
20260904205306 34 223 0.0 11.3 0.00 0.00 0.00 55 1014.9
20260904204803 34 65 1.6 4.8 0.00 0.00 0.00 61 1015.0
20260904204258 35 203 3.2 6.4 0.00 0.00 0.00 53 1014.9
20260904203754 35 259 3.2 11.3 0.00 0.00 0.00 54 1015.2
20260904203250 35 236 4.8 6.4 0.00 0.00 0.00 56 1015.0
20260904202746 34 210 0.0 12.9 0.00 0.00 0.00 56 1015.2
20260904202242 34 234 3.2 8.0 0.00 0.00 0.00 56 1015.2
20260904201737 35 19 0.0 3.2 0.00 0.00 0.00 58 1015.3
20260904201237 35 333 0.0 3.2 0.00 0.00 0.00 57 1015.2
20260904200732 35 314 0.0 9.7 0.00 0.00 0.00 54 1015.5
20260904200227 35 9 3.2 4.8 0.00 0.00 0.00 56 1015.7
20260904195726 34 276 0.0 4.8 0.00 0.00 0.00 56 1015.7
20260904195224 34 28 6.4 6.4 0.00 0.00 0.00 56 1015.7
20260904194720 35 113 0.0 6.4 0.00 0.00 0.00 55 1015.8
20260904194219 35 7 4.8 4.8 0.00 0.00 0.00 55 1015.9
20260904193714 35 309 1.6 8.0 0.00 0.00 0.00 53 1015.9
20260904193210 35 283 0.0 4.8 0.00 0.00 0.00 53 1016.0
20260904192705 35 8 4.8 6.4 0.00 0.00 0.00 54 1016.2
20260904192200 35 11 1.6 6.4 0.00 0.00 0.00 50 1016.3
20260904191657 36 348 3.2 8.0 0.00 0.00 0.00 50 1016.3
20260904191153 35 77 1.6 4.8 0.00 0.00 0.00 55 1016.3
20260904190649 36 58 3.2 4.8 0.00 0.00 0.00 54 1016.4
20260904190139 36 182 0.0 6.4 0.00 0.00 0.00 50 1016.5
20260904185635 36 263 3.2 11.3 0.00 0.00 0.00 51 1016.5
20260904185130 36 201 3.2 6.4 0.00 0.00 0.00 51 1016.6
20260904184628 36 246 1.6 6.4 0.00 0.00 0.00 53 1016.5
20260904184124 36 342 1.6 8.0 0.00 0.00 0.00 55 1016.7
20260904183620 36 80 3.2 6.4 0.00 0.00 0.00 56 1016.6
20260904183114 35 241 3.2 9.7 0.00 0.00 0.00 55 1016.7
20260904182610 36 316 0.0 9.7 0.00 0.00 0.00 56 1016.6
20260904182104 35 200 0.0 20.9 0.00 0.00 0.00 57 1016.7
20260904181601 36 193 1.6 8.0 0.00 0.00 0.00 54 1017.1
20260904181100 36 303 4.8 11.3 0.00 0.00 0.00 55 1016.9
20260904180555 36 168 0.0 4.8 0.00 0.00 0.00 54 1017.1
20260904180050 36 188 3.2 4.8 0.00 0.00 0.00 53 1017.2
20260904175550 36 341 1.6 4.8 0.00 0.00 0.00 55 1017.2
20260904175048 35 286 1.6 12.9 0.00 0.00 0.00 56 1017.2
20260904174543 35 209 4.8 14.5 0.00 0.00 0.00 55 1017.4
20260904174040 36 343 1.6 14.5 0.00 0.00 0.00 55 1017.2
20260904173540 36 211 3.2 8.0 0.00 0.00 0.00 52 1017.2